Current Version              Previous Version:    01  02  03  04  05  06  07  08  09  10  11  12  13  14  15  16  17  18  19  20  21  22  23  24  25  26  27  28  29  30  
   31  32  33  34  35  36  37  38  39  40  41  42  43  44  45  46  47  48  49  50  51  52  53  54  55  56  57  58  59  60  

[Printable]
889
ASUS44 KFWD 251615
RWRTX
NORTH TEXAS HOURLY WEATHER ROUNDUP
NATIONAL WEATHER SERVICE FORT WORTH TX
1000 AM CST SUN JAN 25 2015

NOTE: "FAIR" INDICATES FEW OR NO CLOUDS BELOW 12,000 FEET WITH NO
SIGNIFICANT WEATHER AND/OR OBSTRUCTIONS TO VISIBILITY.

TXZ118-119-251700-
DALLAS/FORT WORTH METROPLEX

CITY           SKY/WX    TMP DP  RH WIND       PRES   REMARKS
DFW AIRPORT    MOSUNNY   54  36  50 NW18      30.03R
DALLAS LOVE    MOSUNNY   54  37  52 NW13      30.03R
FTW MEACHAM    SUNNY     56  36  47 NW18G24   30.05R
DAL-EXECUTIVE  SUNNY     56  36  47 NW15      30.03R
FTW-ALLIANCE   MOSUNNY   53  36  52 NW17G25   30.05R
FTW-SPINKS     SUNNY     55  36  47 NW16G25   30.08R
ARLINGTON      SUNNY     56  34  43 NW16      30.05R
GRAND PRAIRIE  SUNNY     54  37  54 NW12      30.06R
ADDISON        SUNNY     54  36  50 NW9G20    30.04
MESQUITE       SUNNY     54  37  54 W14       30.03R
LANCASTER      SUNNY     53  36  53 NW14      30.04R
$$

TXZ091>094-102>105-117-120-121-131>134-251700-
NORTH CENTRAL TEXAS

CITY           SKY/WX    TMP DP  RH WIND       PRES   REMARKS
SHRMAN/DENISON SUNNY     55  41  59 NW15      30.01R
GAINESVILLE    SUNNY     55  35  46 NW17G24   30.06R
BOWIE          SUNNY     55  33  42 NW23G30   30.07R
BRIDGEPORT     SUNNY     53  38  57 NW10      30.10R
DECATUR        SUNNY     53  34  48 NW16G23   30.06R
DENTON         SUNNY     56  36  47 NW16G28   30.04R
MCKINNEY       SUNNY     54  37  52 NW17      30.01R
GREENVILLE     SUNNY     55  36  47 W13       30.00R
ROCKWALL       SUNNY     53  38  56 NW15G21   30.01R
TERRELL        SUNNY     56  39  53 NW15G21   30.02R
WAXAHACHIE     SUNNY     54  39  57 NW13      30.06R
CLEBURNE       SUNNY     54  37  54 NW13G21   30.08R
GRANBURY       SUNNY     55  36  48 NW16G25   30.10R
$$

TXZ083>090-098>101-113>116-127>130-139>142-154-155-251700-
WESTERN NORTH TEXAS

CITY           SKY/WX    TMP DP  RH WIND       PRES   REMARKS
WICHITA FALLS  SUNNY     54  33  45 NW17      30.11R
WF-KICKAPOO    SUNNY     47  26  44 NW14G24   30.12R
VERNON         SUNNY     54  26  33 NW18      30.15R
ABILENE        SUNNY     51  33  50 NW13      30.17R
ABILENE-DYESS  SUNNY     51  33  51 N14       30.16R
BRECKENRIDGE   SUNNY     54  33  44 NW15G21   30.14R
GRAHAM         SUNNY     54  36  51 NW14      30.11R
MINERAL WELLS  SUNNY     52  36  54 NW15      30.09R
STEPHENVILLE   MOSUNNY   54  34  47 NW13G21   30.12R
COMANCHE       MOSUNNY   53  36  53 N13G23    30.13R
BROWNWOOD      MOSUNNY   55  32  41 N14G24    30.13R
COLEMAN        MOSUNNY   53  35  51 N18G26    30.15R
BRADY          SUNNY     52  36  54 N15       30.12R
$$

TXZ143>147-156>162-174-175-251700-
CENTRAL TEXAS

CITY           SKY/WX    TMP DP  RH WIND       PRES   REMARKS
WACO           SUNNY     56  39  53 N23G30    30.06R
WACO-TSTC      SUNNY     55  39  54 NW17G24   30.06R
WACO-MCGREGOR  SUNNY     55  41  58 N14       30.09R
HILLSBORO      SUNNY     54  41  61 NW16      30.06R
CORSICANA      SUNNY     55  38  52 NW15      30.05R
MEXIA          SUNNY     55  39  56 NW15      30.04R
HEARNE         SUNNY     53  39  60 NW10      30.07R
CAMERON        SUNNY     54  40  60 NW7       30.07R
TEMPLE         SUNNY     55  37  50 NW15G24   30.06R
KILLEEN        SUNNY     58  37  47 NW22G29   30.08R
KILLEEN-SKYLRK SUNNY     55  36  47 NW13      30.06R
FORT HOOD      SUNNY     56  37  48 MISG      30.08R
GATESVILLE     SUNNY     54  37  54 N13       30.11R
HAMILTON       MOSUNNY   54  36  50 N15G26    30.11R
LAMPASAS       SUNNY     56  39  52 N9G16     30.08S
$$

TXZ095>097-106>112-122>126-135>138-148>153-164>167-251700-
EAST TEXAS

CITY           SKY/WX    TMP DP  RH WIND       PRES   REMARKS
PARIS          SUNNY     55  37  50 NW21G29   29.95R
SULPHUR SPRNGS SUNNY     55  39  56 NW10      29.99S
MOUNT PLEASANT SUNNY     55  37  51 NW10      29.95F
GILMER         SUNNY     54  38  53 W7        29.96R
MINEOLA        SUNNY     55  36  47 NW10      29.99R
TYLER          SUNNY     55  38  52 NW9       29.98R
LONGVIEW       SUNNY     55  38  52 NW17      29.95R
MARSHALL       SUNNY     56  39  53 NW12G21   29.96S
ATHENS         SUNNY     52  36  54 NW8G16    30.00R
PALESTINE      SUNNY     51  40  67 NW7       30.03R
JACKSONVILLE   SUNNY     52  37  58 NW10G16   30.01R
HENDERSON      SUNNY     53  39  61 W8        29.98R
NACOGDOCHES    SUNNY     52  37  58 NW9       29.99R
LUFKIN         SUNNY     56  40  55 W13       30.00R
$$

SUPPLEMENTAL OBSERVATIONS (CENTRAL)

CITY           SKY/WX    TMP DP  RH WIND       PRES   REMARKS
CADDO GRASSLND   N/A     57  37  47 NW9G17      N/A
PAT MAYSE LAKE   N/A     54  36  50 W16         N/A
GREENVILLE       N/A     57  37  47 NW14G24     N/A
CEDAR HILL       N/A     55  36  47 NW8         N/A
PALESTINE        N/A     55  37  50 NW9G17      N/A
LAKE LIMESTONE   N/A     57  37  47 NW8         N/A
MCGREGOR         N/A     57  37  47 N12         N/A
TEMPLE           N/A     57  37  47 NW2         N/A
$$

SUPPLEMENTAL OBSERVATIONS (WEST)

CITY           SKY/WX    TMP DP  RH WIND       PRES   REMARKS
MILLERS CREEK    N/A     55  32  41 N16G23      N/A
POSSUM KINGDOM   N/A     54  34  47 NW13        N/A
LBJ GRASSLAND    N/A     55  37  50 NW7G16      N/A
GRANBURY         N/A     55  34  44 NW18G26     N/A
COMANCHE         N/A     54  36  50 N17G23      N/A
HAMBY            N/A     50  37  62 NW6         N/A
IVIE RESERVOIR   N/A     52  36  54 NW8         N/A
COLORADO BEND    N/A     54  36  50 N7          N/A
$$

SUPPLEMENTAL OBSERVATIONS (EAST)

CITY           SKY/WX    TMP DP  RH WIND       PRES   REMARKS
CLARKSVILLE      N/A     55  37  50 NW16G28     N/A
TEXARKANA        N/A     55  39  54 W5          N/A
CADDO LAKE       N/A     55  37  50 W8G18       N/A
GILMER           N/A     57  37  47 NW8G16      N/A
HENDERSON        N/A     54  37  54 NW9         N/A
LUFKIN           N/A     55  39  54 MISG        N/A
S SABINE NF      N/A     55  41  58 W5          N/A
$$

SUPPLEMENTAL OBSERVATIONS ARE A COLLECTION OF AUTOMATED INSTRUMENTS
THAT ARE MAINTAINED BY A VARIETY OF FEDERAL AND STATE AGENCIES.
CERTAIN ELEMENTS...SUCH AS HUMIDITY VALUES AND SUSTAINED WIND
SPEEDS...MAY BE APPROXIMATED.